Time,TemperatureF,DewpointF,PressureIn,WindDirection,WindDirectionDegrees,WindSpeedMPH,WindSpeedGustMPH,Humidity,HourlyPrecipIn,Conditions,Clouds,dailyrainin,SoftwareType,DateUTC
2013-11-26 00:01:00,30.9,14.5,30.33,South,174,4.0,8.9,50,0.00,,,0.00,meteobridge,2013-11-26 05:01:00,
2013-11-26 00:03:00,30.9,14.9,30.33,South,187,6.0,8.1,51,0.00,,,0.00,meteobridge,2013-11-26 05:03:00,
2013-11-26 00:04:00,30.9,14.5,30.33,SW,218,4.9,6.0,50,0.00,,,0.00,meteobridge,2013-11-26 05:04:00,
2013-11-26 00:09:00,30.9,14.5,30.34,South,171,0.9,2.9,50,0.00,,,0.00,meteobridge,2013-11-26 05:09:00,
2013-11-26 00:15:00,30.9,14.9,30.34,SSW,205,2.9,2.9,51,0.00,,,0.00,meteobridge,2013-11-26 05:15:00,
2013-11-26 00:20:00,30.9,14.9,30.34,WSW,246,0.9,4.9,51,0.00,,,0.00,meteobridge,2013-11-26 05:20:00,
2013-11-26 00:26:00,30.9,14.9,30.34,SSW,213,2.9,4.9,51,0.00,,,0.00,meteobridge,2013-11-26 05:26:00,
2013-11-26 00:31:00,30.9,14.9,30.34,SSW,197,2.9,6.9,51,0.00,,,0.00,meteobridge,2013-11-26 05:31:00,
2013-11-26 00:36:00,31.1,15.1,30.33,South,181,2.0,2.9,51,0.00,,,0.00,meteobridge,2013-11-26 05:36:00,
2013-11-26 00:41:00,31.1,15.1,30.32,South,172,2.9,4.0,51,0.00,,,0.00,meteobridge,2013-11-26 05:41:00,
2013-11-26 00:46:00,31.1,15.4,30.33,SW,216,0.0,2.9,52,0.00,,,0.00,meteobridge,2013-11-26 05:46:00,
2013-11-26 00:52:00,31.1,15.1,30.32,WSW,240,0.9,4.0,51,0.00,,,0.00,meteobridge,2013-11-26 05:52:00,
2013-11-26 00:57:00,31.1,15.1,30.32,SSW,201,2.9,6.0,51,0.00,,,0.00,meteobridge,2013-11-26 05:57:00,
2013-11-26 01:02:00,31.1,15.1,30.32,SSW,193,2.0,4.0,51,0.00,,,0.00,meteobridge,2013-11-26 06:02:00,
2013-11-26 01:08:00,31.3,15.3,30.33,SSW,205,2.0,6.9,51,0.00,,,0.00,meteobridge,2013-11-26 06:08:00,
2013-11-26 01:13:00,31.3,15.3,30.32,SSW,201,2.9,4.9,51,0.00,,,0.00,meteobridge,2013-11-26 06:13:00,
2013-11-26 01:18:00,31.3,15.3,30.32,WSW,238,2.9,6.0,51,0.00,,,0.00,meteobridge,2013-11-26 06:18:00,
2013-11-26 01:24:00,31.3,15.3,30.33,SW,236,0.9,6.9,51,0.00,,,0.00,meteobridge,2013-11-26 06:24:00,
2013-11-26 01:29:00,31.3,14.7,30.34,SSW,202,4.0,4.0,50,0.00,,,0.00,meteobridge,2013-11-26 06:29:00,
2013-11-26 01:35:00,31.3,14.7,30.34,WSW,240,2.9,6.0,50,0.00,,,0.00,meteobridge,2013-11-26 06:35:00,
2013-11-26 01:40:00,31.3,14.7,30.33,SSW,195,2.0,6.9,50,0.00,,,0.00,meteobridge,2013-11-26 06:40:00,
2013-11-26 01:45:00,31.3,15.3,30.33,South,189,0.9,2.9,51,0.00,,,0.00,meteobridge,2013-11-26 06:45:00,
2013-11-26 01:51:00,31.3,15.3,30.33,South,188,2.9,2.9,51,0.00,,,0.00,meteobridge,2013-11-26 06:51:00,
2013-11-26 01:56:00,31.3,15.3,30.33,SW,227,2.0,6.0,51,0.00,,,0.00,meteobridge,2013-11-26 06:56:00,
2013-11-26 02:01:00,31.3,15.3,30.33,SSW,208,4.9,6.9,51,0.00,,,0.00,meteobridge,2013-11-26 07:01:00,
2013-11-26 02:07:00,31.3,15.3,30.33,SSE,161,0.0,2.9,51,0.00,,,0.00,meteobridge,2013-11-26 07:07:00,
2013-11-26 02:12:00,31.3,15.6,30.33,SE,140,2.9,4.9,52,0.00,,,0.00,meteobridge,2013-11-26 07:12:00,
2013-11-26 02:17:00,31.1,15.1,30.33,SSW,200,0.9,2.9,51,0.00,,,0.00,meteobridge,2013-11-26 07:17:00,
2013-11-26 02:23:00,31.1,15.1,30.32,SW,232,0.9,2.9,51,0.00,,,0.00,meteobridge,2013-11-26 07:23:00,
2013-11-26 02:28:00,31.1,15.1,30.32,SW,236,4.9,6.9,51,0.00,,,0.00,meteobridge,2013-11-26 07:28:00,
2013-11-26 02:34:00,31.1,15.1,30.32,SSW,202,2.0,6.9,51,0.00,,,0.00,meteobridge,2013-11-26 07:34:00,
2013-11-26 02:39:00,31.1,15.4,30.32,SSW,211,0.9,4.9,52,0.00,,,0.00,meteobridge,2013-11-26 07:39:00,
2013-11-26 02:44:00,31.1,15.4,30.32,SW,215,2.0,4.9,52,0.00,,,0.00,meteobridge,2013-11-26 07:44:00,
2013-11-26 02:49:00,31.1,15.4,30.32,SSW,198,2.9,6.0,52,0.00,,,0.00,meteobridge,2013-11-26 07:49:00,
2013-11-26 02:55:00,31.1,16.0,30.31,SSE,161,0.9,4.0,53,0.00,,,0.00,meteobridge,2013-11-26 07:55:00,
2013-11-26 03:00:00,31.1,15.4,30.31,WSW,239,0.9,6.0,52,0.00,,,0.00,meteobridge,2013-11-26 08:00:00,
2013-11-26 03:05:00,31.1,16.0,30.32,SSW,205,2.0,4.0,53,0.00,,,0.00,meteobridge,2013-11-26 08:05:00,
2013-11-26 03:10:00,31.1,15.4,30.31,SSW,201,2.9,4.0,52,0.00,,,0.00,meteobridge,2013-11-26 08:10:00,
2013-11-26 03:16:00,31.1,15.4,30.32,SSW,202,2.0,4.0,52,0.00,,,0.00,meteobridge,2013-11-26 08:16:00,
2013-11-26 03:21:00,31.1,16.0,30.32,SSW,210,2.9,4.0,53,0.00,,,0.00,meteobridge,2013-11-26 08:21:00,
2013-11-26 03:26:00,31.1,16.0,30.31,South,184,0.9,2.0,53,0.00,,,0.00,meteobridge,2013-11-26 08:26:00,
2013-11-26 03:32:00,31.1,16.0,30.32,South,176,2.0,2.9,53,0.00,,,0.00,meteobridge,2013-11-26 08:32:00,
2013-11-26 03:37:00,31.3,16.2,30.31,SSW,201,0.9,4.0,53,0.00,,,0.00,meteobridge,2013-11-26 08:37:00,
2013-11-26 03:42:00,31.3,16.2,30.31,SSW,202,2.9,4.9,53,0.00,,,0.00,meteobridge,2013-11-26 08:42:00,
2013-11-26 03:47:00,31.3,16.2,30.31,SSW,196,2.0,2.9,53,0.00,,,0.00,meteobridge,2013-11-26 08:47:00,
2013-11-26 03:52:00,31.3,16.5,30.30,South,183,0.9,2.9,54,0.00,,,0.00,meteobridge,2013-11-26 08:52:00,
2013-11-26 03:58:00,31.3,16.5,30.30,SSW,200,0.9,4.0,54,0.00,,,0.00,meteobridge,2013-11-26 08:58:00,
2013-11-26 04:03:00,31.3,16.5,30.31,SSW,207,0.9,4.0,54,0.00,,,0.00,meteobridge,2013-11-26 09:03:00,
2013-11-26 04:08:00,31.3,16.2,30.30,SE,132,4.0,4.0,53,0.00,,,0.00,meteobridge,2013-11-26 09:08:00,
2013-11-26 04:13:00,31.3,16.5,30.30,South,175,2.0,2.9,54,0.00,,,0.00,meteobridge,2013-11-26 09:13:00,
2013-11-26 04:19:00,31.3,16.5,30.31,South,180,2.0,2.9,54,0.00,,,0.00,meteobridge,2013-11-26 09:19:00,
2013-11-26 04:24:00,31.3,16.5,30.31,South,173,0.9,2.0,54,0.00,,,0.00,meteobridge,2013-11-26 09:24:00,
2013-11-26 04:29:00,31.3,16.5,30.31,SW,216,2.0,4.9,54,0.00,,,0.00,meteobridge,2013-11-26 09:29:00,
2013-11-26 04:34:00,31.3,16.5,30.32,SSW,192,2.0,2.0,54,0.00,,,0.00,meteobridge,2013-11-26 09:34:00,
2013-11-26 04:39:00,31.3,16.5,30.32,WSW,250,0.0,4.0,54,0.00,,,0.00,meteobridge,2013-11-26 09:39:00,
2013-11-26 04:45:00,31.3,16.5,30.31,SSE,153,0.9,2.9,54,0.00,,,0.00,meteobridge,2013-11-26 09:45:00,
2013-11-26 04:50:00,31.3,16.5,30.31,SW,215,2.0,4.9,54,0.00,,,0.00,meteobridge,2013-11-26 09:50:00,
2013-11-26 04:55:00,31.3,16.2,30.31,SSW,209,2.9,2.9,53,0.00,,,0.00,meteobridge,2013-11-26 09:55:00,
2013-11-26 05:00:00,31.3,16.5,30.32,South,177,0.9,4.9,54,0.00,,,0.00,meteobridge,2013-11-26 10:00:00,
2013-11-26 05:06:00,31.3,16.5,30.32,SSW,197,2.9,4.9,54,0.00,,,0.00,meteobridge,2013-11-26 10:06:00,
2013-11-26 05:11:00,31.5,16.3,30.31,South,190,2.0,2.9,53,0.00,,,0.00,meteobridge,2013-11-26 10:11:00,
2013-11-26 05:16:00,31.5,16.3,30.32,SSW,209,2.9,6.0,53,0.00,,,0.00,meteobridge,2013-11-26 10:16:00,
2013-11-26 05:21:00,31.5,16.7,30.32,SSW,213,0.9,2.9,54,0.00,,,0.00,meteobridge,2013-11-26 10:21:00,
2013-11-26 05:26:00,31.5,16.3,30.32,SSW,209,0.9,4.0,53,0.00,,,0.00,meteobridge,2013-11-26 10:26:00,
2013-11-26 05:32:00,31.5,16.7,30.33,SSW,194,0.9,2.0,54,0.00,,,0.00,meteobridge,2013-11-26 10:32:00,
2013-11-26 05:37:00,31.5,16.7,30.34,South,173,2.9,6.9,54,0.00,,,0.00,meteobridge,2013-11-26 10:37:00,
2013-11-26 05:43:00,31.5,16.7,30.34,South,191,2.0,2.9,54,0.00,,,0.00,meteobridge,2013-11-26 10:43:00,
2013-11-26 05:48:00,31.5,16.7,30.34,South,184,0.9,4.0,54,0.00,,,0.00,meteobridge,2013-11-26 10:48:00,
2013-11-26 05:53:00,31.5,16.7,30.33,SE,140,2.9,4.9,54,0.00,,,0.00,meteobridge,2013-11-26 10:53:00,
2013-11-26 05:58:00,31.6,16.9,30.33,ESE,111,4.0,4.9,54,0.00,,,0.00,meteobridge,2013-11-26 10:58:00,
2013-11-26 06:03:00,31.6,16.9,30.33,South,177,2.0,6.0,54,0.00,,,0.00,meteobridge,2013-11-26 11:03:00,
2013-11-26 06:09:00,31.6,16.9,30.34,SE,143,0.0,6.0,54,0.00,,,0.00,meteobridge,2013-11-26 11:09:00,
2013-11-26 06:14:00,31.6,16.9,30.34,SSE,164,0.9,2.9,54,0.00,,,0.00,meteobridge,2013-11-26 11:14:00,
2013-11-26 06:19:00,31.6,16.9,30.34,SE,144,0.0,2.0,54,0.00,,,0.00,meteobridge,2013-11-26 11:19:00,
2013-11-26 06:25:00,31.6,17.2,30.33,South,181,0.9,2.0,55,0.00,,,0.00,meteobridge,2013-11-26 11:25:00,
2013-11-26 06:30:00,31.6,16.9,30.32,SW,215,2.9,4.0,54,0.00,,,0.00,meteobridge,2013-11-26 11:30:00,
2013-11-26 06:35:00,31.6,16.9,30.33,SSW,196,0.9,2.9,54,0.00,,,0.00,meteobridge,2013-11-26 11:35:00,
2013-11-26 06:41:00,31.8,17.4,30.33,South,185,0.0,0.0,55,0.00,,,0.00,meteobridge,2013-11-26 11:41:00,
2013-11-26 06:46:00,31.8,17.4,30.33,South,186,2.9,4.9,55,0.00,,,0.00,meteobridge,2013-11-26 11:46:00,
2013-11-26 06:51:00,31.8,17.1,30.33,SSW,197,0.9,4.0,54,0.00,,,0.00,meteobridge,2013-11-26 11:51:00,
2013-11-26 06:56:00,31.8,17.1,30.32,SE,128,0.0,0.9,54,0.00,,,0.00,meteobridge,2013-11-26 11:56:00,
2013-11-26 07:01:00,31.8,17.1,30.33,SE,144,0.0,2.0,54,0.00,,,0.00,meteobridge,2013-11-26 12:01:00,
2013-11-26 07:06:00,31.8,17.4,30.32,SE,144,0.9,0.9,55,0.00,,,0.00,meteobridge,2013-11-26 12:06:00,
2013-11-26 07:12:00,32.0,17.2,30.32,SSW,192,0.0,2.0,54,0.00,,,0.00,meteobridge,2013-11-26 12:12:00,
2013-11-26 07:17:00,32.0,17.2,30.33,SW,232,2.0,2.0,54,0.00,,,0.00,meteobridge,2013-11-26 12:17:00,
2013-11-26 07:22:00,32.0,16.9,30.33,WSW,258,0.0,2.0,53,0.00,,,0.00,meteobridge,2013-11-26 12:22:00,
2013-11-26 07:27:00,32.2,17.8,30.33,WSW,238,0.9,2.9,55,0.00,,,0.00,meteobridge,2013-11-26 12:27:00,
2013-11-26 07:32:00,32.2,17.8,30.32,SSW,201,2.9,4.0,55,0.00,,,0.00,meteobridge,2013-11-26 12:32:00,
2013-11-26 07:37:00,32.4,18.5,30.32,SW,217,0.9,4.9,56,0.00,,,0.00,meteobridge,2013-11-26 12:37:00,
2013-11-26 07:43:00,32.4,19.2,30.32,WSW,240,0.0,2.0,58,0.00,,,0.00,meteobridge,2013-11-26 12:43:00,
2013-11-26 07:48:00,32.5,17.8,30.33,SW,214,0.9,4.0,54,0.00,,,0.00,meteobridge,2013-11-26 12:48:00,
2013-11-26 07:53:00,32.5,18.1,30.34,SSW,212,2.9,4.0,55,0.00,,,0.00,meteobridge,2013-11-26 12:53:00,
2013-11-26 07:59:00,32.7,18.0,30.34,SSW,204,4.0,4.0,54,0.00,,,0.00,meteobridge,2013-11-26 12:59:00,
2013-11-26 08:04:00,32.7,18.0,30.34,SW,218,0.0,2.0,54,0.00,,,0.00,meteobridge,2013-11-26 13:04:00,
2013-11-26 08:09:00,32.7,18.0,30.34,WSW,248,2.9,4.9,54,0.00,,,0.00,meteobridge,2013-11-26 13:09:00,
2013-11-26 08:14:00,32.7,18.0,30.34,SSW,213,2.0,4.0,54,0.00,,,0.00,meteobridge,2013-11-26 13:14:00,
2013-11-26 08:19:00,32.7,18.0,30.34,West,266,2.0,2.9,54,0.00,,,0.00,meteobridge,2013-11-26 13:19:00,
2013-11-26 08:25:00,32.9,18.1,30.34,SW,221,0.9,2.9,54,0.00,,,0.00,meteobridge,2013-11-26 13:25:00,
2013-11-26 08:30:00,33.1,18.3,30.34,SW,218,2.9,2.9,54,0.00,,,0.00,meteobridge,2013-11-26 13:30:00,
2013-11-26 08:35:00,33.1,18.3,30.34,SW,236,0.9,4.0,54,0.00,,,0.00,meteobridge,2013-11-26 13:35:00,
2013-11-26 08:41:00,33.3,18.5,30.34,SSW,205,2.9,4.9,54,0.00,,,0.00,meteobridge,2013-11-26 13:41:00,
2013-11-26 08:46:00,33.3,18.5,30.34,SW,216,2.0,4.9,54,0.00,,,0.00,meteobridge,2013-11-26 13:46:00,
2013-11-26 08:51:00,33.3,18.5,30.34,SSW,208,4.9,4.9,54,0.00,,,0.00,meteobridge,2013-11-26 13:51:00,
2013-11-26 08:57:00,33.3,18.5,30.34,SSW,201,2.0,4.9,54,0.00,,,0.00,meteobridge,2013-11-26 13:57:00,
2013-11-26 09:02:00,33.4,18.5,30.34,SSW,205,4.9,6.0,54,0.00,,,0.00,meteobridge,2013-11-26 14:02:00,
2013-11-26 09:08:00,33.4,18.5,30.34,SW,235,0.9,4.0,54,0.00,,,0.00,meteobridge,2013-11-26 14:08:00,
2013-11-26 09:13:00,33.6,18.7,30.33,SSW,208,2.9,4.9,54,0.00,,,0.00,meteobridge,2013-11-26 14:13:00,
2013-11-26 09:18:00,33.6,18.3,30.34,SW,236,0.0,4.0,53,0.00,,,0.00,meteobridge,2013-11-26 14:18:00,
2013-11-26 09:23:00,33.6,18.3,30.34,SSW,198,2.0,6.9,53,0.00,,,0.00,meteobridge,2013-11-26 14:23:00,
2013-11-26 09:29:00,33.8,18.5,30.34,SSW,211,2.0,4.9,53,0.00,,,0.00,meteobridge,2013-11-26 14:29:00,
2013-11-26 09:34:00,34.0,18.7,30.33,West,275,2.9,2.9,53,0.00,,,0.00,meteobridge,2013-11-26 14:34:00,
2013-11-26 09:39:00,34.0,18.7,30.33,SSW,205,2.0,2.9,53,0.00,,,0.00,meteobridge,2013-11-26 14:39:00,
2013-11-26 09:44:00,34.2,18.9,30.34,West,275,2.0,4.9,53,0.00,,,0.00,meteobridge,2013-11-26 14:44:00,
2013-11-26 09:49:00,34.2,18.9,30.34,West,269,0.9,2.9,53,0.00,,,0.00,meteobridge,2013-11-26 14:49:00,
2013-11-26 09:54:00,34.2,18.9,30.33,SW,215,4.9,4.9,53,0.00,,,0.00,meteobridge,2013-11-26 14:54:00,
2013-11-26 10:00:00,34.3,18.5,30.33,SSW,201,2.9,2.9,52,0.00,,,0.00,meteobridge,2013-11-26 15:00:00,
2013-11-26 10:05:00,34.3,19.0,30.34,SSW,210,4.9,6.9,53,0.00,,,0.00,meteobridge,2013-11-26 15:05:00,
2013-11-26 10:10:00,34.5,19.2,30.34,SW,215,2.9,4.0,53,0.00,,,0.00,meteobridge,2013-11-26 15:10:00,
2013-11-26 10:16:00,34.7,19.4,30.33,SW,221,0.9,2.0,53,0.00,,,0.00,meteobridge,2013-11-26 15:16:00,
2013-11-26 10:21:00,34.7,19.4,30.33,SW,227,0.0,0.0,53,0.00,,,0.00,meteobridge,2013-11-26 15:21:00,
2013-11-26 10:26:00,35.1,19.2,30.33,ESE,122,2.0,2.0,52,0.00,,,0.00,meteobridge,2013-11-26 15:26:00,
2013-11-26 10:31:00,35.2,19.4,30.32,SE,129,0.0,0.0,52,0.00,,,0.00,meteobridge,2013-11-26 15:31:00,
2013-11-26 10:36:00,35.4,19.6,30.33,South,187,0.9,2.0,52,0.00,,,0.00,meteobridge,2013-11-26 15:36:00,
2013-11-26 10:42:00,35.6,19.8,30.32,WSW,241,0.0,0.9,52,0.00,,,0.00,meteobridge,2013-11-26 15:42:00,
2013-11-26 10:47:00,35.8,19.9,30.32,SSW,199,2.0,2.0,52,0.00,,,0.00,meteobridge,2013-11-26 15:47:00,
2013-11-26 10:53:00,36.0,20.1,30.31,South,190,0.0,0.0,52,0.00,,,0.00,meteobridge,2013-11-26 15:53:00,
2013-11-26 10:58:00,36.0,20.5,30.31,SW,234,0.0,2.0,53,0.00,,,0.00,meteobridge,2013-11-26 15:58:00,
2013-11-26 11:03:00,36.0,21.7,30.31,SW,236,0.0,0.9,56,0.00,,,0.00,meteobridge,2013-11-26 16:03:00,
2013-11-26 11:08:00,36.1,21.0,30.31,SW,220,0.0,0.0,54,0.00,,,0.00,meteobridge,2013-11-26 16:08:00,
2013-11-26 11:13:00,36.1,21.6,30.31,WSW,254,0.0,0.9,55,0.00,,,0.00,meteobridge,2013-11-26 16:13:00,
2013-11-26 11:19:00,36.1,21.6,30.31,SSE,152,2.0,2.0,55,0.00,,,0.00,meteobridge,2013-11-26 16:19:00,
2013-11-26 11:24:00,36.3,21.7,30.31,SSE,152,0.0,0.0,55,0.00,,,0.00,meteobridge,2013-11-26 16:24:00,
2013-11-26 11:29:00,36.7,22.5,30.31,SE,144,2.0,2.0,56,0.00,,,0.00,meteobridge,2013-11-26 16:29:00,
2013-11-26 11:35:00,36.9,21.7,30.31,SSW,195,2.0,2.0,54,0.00,,,0.00,meteobridge,2013-11-26 16:35:00,
2013-11-26 11:40:00,37.0,21.9,30.30,SSW,195,0.0,2.0,54,0.00,,,0.00,meteobridge,2013-11-26 16:40:00,
2013-11-26 11:45:00,37.6,21.9,30.30,SSW,195,0.0,0.0,53,0.00,,,0.00,meteobridge,2013-11-26 16:45:00,
2013-11-26 11:51:00,37.8,21.7,30.30,SE,125,0.0,4.9,52,0.00,,,0.00,meteobridge,2013-11-26 16:51:00,
2013-11-26 11:57:00,37.9,22.3,30.29,SE,133,0.0,0.9,53,0.00,,,0.00,meteobridge,2013-11-26 16:57:00,
2013-11-26 12:02:00,37.9,22.3,30.30,SSW,202,2.0,2.9,53,0.00,,,0.00,meteobridge,2013-11-26 17:02:00,
2013-11-26 12:07:00,38.1,22.5,30.29,SE,146,0.0,2.9,53,0.00,,,0.00,meteobridge,2013-11-26 17:07:00,
2013-11-26 12:12:00,38.1,22.5,30.29,SSE,147,2.9,4.0,53,0.00,,,0.00,meteobridge,2013-11-26 17:12:00,
2013-11-26 12:18:00,38.3,22.3,30.29,SSE,147,0.0,0.0,52,0.00,,,0.00,meteobridge,2013-11-26 17:18:00,
2013-11-26 12:23:00,38.5,22.5,30.29,SSE,159,0.0,2.0,52,0.00,,,0.00,meteobridge,2013-11-26 17:23:00,
2013-11-26 12:28:00,38.5,22.5,30.29,SSE,159,0.0,0.0,52,0.00,,,0.00,meteobridge,2013-11-26 17:28:00,
2013-11-26 12:33:00,38.5,22.5,30.29,South,182,2.0,2.0,52,0.00,,,0.00,meteobridge,2013-11-26 17:33:00,
2013-11-26 12:38:00,38.7,22.6,30.29,SSE,165,0.0,0.9,52,0.00,,,0.00,meteobridge,2013-11-26 17:38:00,
2013-11-26 12:43:00,38.7,22.6,30.29,SE,135,2.0,2.9,52,0.00,,,0.00,meteobridge,2013-11-26 17:43:00,
2013-11-26 12:49:00,38.7,22.1,30.29,South,179,0.0,2.0,51,0.00,,,0.00,meteobridge,2013-11-26 17:49:00,
2013-11-26 12:55:00,38.7,21.6,30.29,SSE,154,0.0,0.0,50,0.00,,,0.00,meteobridge,2013-11-26 17:55:00,
2013-11-26 13:00:00,38.7,21.2,30.28,WSW,254,0.0,2.0,49,0.00,,,0.00,meteobridge,2013-11-26 18:00:00,
2013-11-26 13:05:00,38.5,21.0,30.28,SSE,153,0.0,0.0,49,0.00,,,0.00,meteobridge,2013-11-26 18:05:00,
2013-11-26 13:11:00,38.7,21.6,30.28,SSE,153,0.0,0.0,50,0.00,,,0.00,meteobridge,2013-11-26 18:11:00,
2013-11-26 13:16:00,38.5,21.9,30.27,SE,140,0.9,2.9,51,0.00,,,0.00,meteobridge,2013-11-26 18:16:00,
2013-11-26 13:22:00,38.7,22.1,30.27,SE,134,0.9,2.0,51,0.00,,,0.00,meteobridge,2013-11-26 18:22:00,
2013-11-26 13:27:00,38.7,22.6,30.27,SE,134,0.9,2.9,52,0.00,,,0.00,meteobridge,2013-11-26 18:27:00,
2013-11-26 13:32:00,38.7,22.6,30.27,SE,140,0.9,0.9,52,0.00,,,0.00,meteobridge,2013-11-26 18:32:00,
2013-11-26 13:38:00,38.7,21.6,30.27,SE,140,0.0,0.9,50,0.00,,,0.00,meteobridge,2013-11-26 18:38:00,
2013-11-26 13:43:00,38.7,22.1,30.27,SE,140,0.0,0.0,51,0.00,,,0.00,meteobridge,2013-11-26 18:43:00,
2013-11-26 13:48:00,38.8,21.4,30.27,SSE,151,0.0,0.0,49,0.00,,,0.00,meteobridge,2013-11-26 18:48:00,
2013-11-26 13:53:00,38.8,21.4,30.27,ESE,123,0.9,4.0,49,0.00,,,0.00,meteobridge,2013-11-26 18:53:00,
2013-11-26 13:59:00,38.7,21.2,30.27,ESE,122,0.0,4.0,49,0.00,,,0.00,meteobridge,2013-11-26 18:59:00,
2013-11-26 14:04:00,38.7,21.2,30.27,SSE,157,0.0,2.0,49,0.00,,,0.00,meteobridge,2013-11-26 19:04:00,
2013-11-26 14:10:00,38.7,21.2,30.27,SE,124,0.0,0.9,49,0.00,,,0.00,meteobridge,2013-11-26 19:10:00,
2013-11-26 14:15:00,38.7,21.2,30.26,SE,126,0.0,0.0,49,0.00,,,0.00,meteobridge,2013-11-26 19:15:00,
2013-11-26 14:20:00,38.5,21.4,30.26,ESE,114,0.0,2.9,50,0.00,,,0.00,meteobridge,2013-11-26 19:20:00,
2013-11-26 14:25:00,38.5,21.4,30.26,ESE,113,0.0,0.9,50,0.00,,,0.00,meteobridge,2013-11-26 19:25:00,
2013-11-26 14:31:00,38.5,21.9,30.26,SSE,167,4.0,4.0,51,0.00,,,0.00,meteobridge,2013-11-26 19:31:00,
2013-11-26 14:36:00,38.3,22.6,30.26,SSE,150,0.0,0.0,53,0.00,,,0.00,meteobridge,2013-11-26 19:36:00,
2013-11-26 14:41:00,38.3,23.5,30.26,SSE,167,2.9,4.0,55,0.00,,,0.00,meteobridge,2013-11-26 19:41:00,
2013-11-26 14:46:00,38.1,23.9,30.25,SSE,159,2.0,2.0,56,0.00,,,0.00,meteobridge,2013-11-26 19:46:00,
2013-11-26 14:52:00,37.9,24.4,30.25,SSE,159,0.0,0.0,58,0.00,,,0.00,meteobridge,2013-11-26 19:52:00,
2013-11-26 14:58:00,37.8,25.2,30.25,East,79,0.0,0.0,60,0.00,,,0.00,meteobridge,2013-11-26 19:58:00,
2013-11-26 15:03:00,37.6,27.0,30.25,East,97,0.0,2.0,65,0.00,,,0.00,meteobridge,2013-11-26 20:03:00,
2013-11-26 15:08:00,37.4,26.4,30.25,East,97,0.0,0.0,64,0.00,,,0.00,meteobridge,2013-11-26 20:08:00,
2013-11-26 15:13:00,37.0,27.1,30.25,East,96,0.0,0.0,67,0.00,,,0.00,meteobridge,2013-11-26 20:13:00,
2013-11-26 15:18:00,36.9,28.0,30.24,ESE,119,0.0,0.9,70,0.00,,,0.00,meteobridge,2013-11-26 20:18:00,
2013-11-26 15:23:00,36.5,28.0,30.24,ESE,119,0.0,0.0,71,0.00,,,0.00,meteobridge,2013-11-26 20:23:00,
2013-11-26 15:28:00,36.3,28.6,30.24,ESE,119,0.0,0.0,73,0.00,,,0.00,meteobridge,2013-11-26 20:28:00,
2013-11-26 15:33:00,36.1,29.3,30.24,ESE,119,0.0,0.0,76,0.00,,,0.00,meteobridge,2013-11-26 20:33:00,
2013-11-26 15:39:00,35.8,29.8,30.23,ESE,119,0.0,0.0,79,0.00,,,0.00,meteobridge,2013-11-26 20:39:00,
2013-11-26 15:44:00,35.4,29.5,30.23,ESE,119,0.0,0.0,79,0.02,,,0.02,meteobridge,2013-11-26 20:44:00,
2013-11-26 15:50:00,35.2,29.7,30.23,ESE,119,0.0,0.0,80,0.03,,,0.03,meteobridge,2013-11-26 20:50:00,
2013-11-26 15:55:00,35.1,30.4,30.23,ESE,119,0.0,0.0,83,0.04,,,0.04,meteobridge,2013-11-26 20:55:00,
2013-11-26 16:00:00,34.9,30.6,30.23,ESE,119,0.0,0.0,84,0.06,,,0.06,meteobridge,2013-11-26 21:00:00,
2013-11-26 16:06:00,34.9,30.9,30.23,ESE,119,0.0,0.0,85,0.07,,,0.07,meteobridge,2013-11-26 21:06:00,
2013-11-26 16:11:00,34.7,30.4,30.23,ESE,119,0.0,0.0,84,0.08,,,0.08,meteobridge,2013-11-26 21:11:00,
2013-11-26 16:17:00,34.5,30.6,30.23,ESE,119,0.0,0.0,85,0.09,,,0.09,meteobridge,2013-11-26 21:17:00,
2013-11-26 16:22:00,34.5,30.7,30.23,ESE,119,0.0,0.0,86,0.10,,,0.10,meteobridge,2013-11-26 21:22:00,
2013-11-26 16:28:00,34.3,30.6,30.22,ESE,119,0.0,0.0,86,0.11,,,0.11,meteobridge,2013-11-26 21:28:00,
2013-11-26 16:33:00,34.3,30.6,30.22,ESE,119,0.0,0.0,86,0.12,,,0.12,meteobridge,2013-11-26 21:33:00,
2013-11-26 16:39:00,34.2,30.4,30.22,ESE,119,0.0,0.0,86,0.12,,,0.13,meteobridge,2013-11-26 21:39:00,
2013-11-26 16:44:00,34.2,30.7,30.22,ESE,119,0.0,0.0,87,0.13,,,0.15,meteobridge,2013-11-26 21:44:00,
2013-11-26 16:49:00,34.2,30.9,30.22,ESE,119,0.0,0.0,88,0.14,,,0.17,meteobridge,2013-11-26 21:49:00,
2013-11-26 16:55:00,34.2,31.3,30.21,ESE,119,0.0,0.0,89,0.15,,,0.19,meteobridge,2013-11-26 21:55:00,
2013-11-26 17:00:00,34.0,31.1,30.21,ESE,119,0.0,0.0,89,0.16,,,0.22,meteobridge,2013-11-26 22:00:00,
2013-11-26 17:05:00,34.0,31.1,30.21,ESE,119,0.0,0.0,89,0.18,,,0.25,meteobridge,2013-11-26 22:05:00,
2013-11-26 17:10:00,34.0,31.3,30.21,ESE,119,0.0,0.0,90,0.20,,,0.28,meteobridge,2013-11-26 22:10:00,
2013-11-26 17:15:00,34.0,31.3,30.21,ESE,119,0.0,0.0,90,0.22,,,0.31,meteobridge,2013-11-26 22:15:00,
2013-11-26 17:21:00,34.0,31.6,30.21,ESE,119,0.0,0.0,91,0.24,,,0.34,meteobridge,2013-11-26 22:21:00,
2013-11-26 17:26:00,34.0,31.6,30.21,ESE,119,0.0,0.0,91,0.27,,,0.37,meteobridge,2013-11-26 22:26:00,
2013-11-26 17:32:00,34.0,31.6,30.21,ESE,119,0.0,0.0,91,0.29,,,0.41,meteobridge,2013-11-26 22:32:00,
2013-11-26 17:37:00,34.0,31.6,30.21,ESE,119,0.0,0.0,91,0.33,,,0.46,meteobridge,2013-11-26 22:37:00,
2013-11-26 17:43:00,34.2,32.0,30.21,ESE,119,0.0,0.0,92,0.37,,,0.51,meteobridge,2013-11-26 22:43:00,
2013-11-26 17:49:00,34.0,31.8,30.21,ESE,105,0.0,0.0,92,0.39,,,0.56,meteobridge,2013-11-26 22:49:00,
2013-11-26 17:54:00,34.0,31.8,30.21,ESE,105,0.0,0.0,92,0.42,,,0.61,meteobridge,2013-11-26 22:54:00,
2013-11-26 18:00:00,34.0,31.8,30.21,ESE,105,0.0,0.0,92,0.43,,,0.65,meteobridge,2013-11-26 23:00:00,
2013-11-26 18:05:00,34.0,32.2,30.21,ESE,105,0.0,0.0,93,0.44,,,0.69,meteobridge,2013-11-26 23:05:00,
2013-11-26 18:10:00,34.0,32.2,30.20,ESE,105,0.0,0.0,93,0.46,,,0.74,meteobridge,2013-11-26 23:10:00,
2013-11-26 18:15:00,34.0,32.2,30.19,ESE,105,0.0,0.0,93,0.47,,,0.78,meteobridge,2013-11-26 23:15:00,
2013-11-26 18:21:00,34.0,32.2,30.19,ESE,105,0.0,0.0,93,0.47,,,0.81,meteobridge,2013-11-26 23:21:00,
2013-11-26 18:26:00,34.0,32.2,30.19,East,79,0.9,0.9,93,0.47,,,0.84,meteobridge,2013-11-26 23:26:00,
2013-11-26 18:31:00,34.0,32.2,30.19,East,79,0.0,0.9,93,0.47,,,0.88,meteobridge,2013-11-26 23:31:00,
2013-11-26 18:37:00,34.0,32.2,30.19,East,79,0.0,0.0,93,0.44,,,0.90,meteobridge,2013-11-26 23:37:00,
2013-11-26 18:42:00,34.0,32.4,30.19,East,79,0.0,0.0,94,0.43,,,0.93,meteobridge,2013-11-26 23:42:00,
2013-11-26 18:47:00,34.0,32.4,30.19,East,79,0.0,0.9,94,0.40,,,0.95,meteobridge,2013-11-26 23:47:00,
2013-11-26 18:52:00,34.0,32.4,30.19,East,79,0.0,0.0,94,0.38,,,0.98,meteobridge,2013-11-26 23:52:00,
2013-11-26 18:58:00,34.0,32.4,30.19,East,79,0.0,0.0,94,0.37,,,1.01,meteobridge,2013-11-26 23:58:00,
2013-11-26 19:03:00,34.0,32.4,30.19,East,79,0.0,0.0,94,0.35,,,0.01,meteobridge,2013-11-27 00:03:00,
2013-11-26 19:08:00,34.0,32.4,30.18,East,79,0.0,0.0,94,0.33,,,0.03,meteobridge,2013-11-27 00:08:00,
2013-11-26 19:13:00,34.0,32.4,30.18,East,79,0.0,0.0,94,0.30,,,0.04,meteobridge,2013-11-27 00:13:00,
2013-11-26 19:18:00,34.2,32.5,30.18,NNE,26,0.0,2.0,94,0.28,,,0.06,meteobridge,2013-11-27 00:18:00,
2013-11-26 19:24:00,34.2,32.5,30.17,NE,44,0.0,2.0,94,0.27,,,0.08,meteobridge,2013-11-27 00:24:00,
2013-11-26 19:29:00,34.2,32.5,30.17,ENE,67,0.0,2.9,94,0.26,,,0.10,meteobridge,2013-11-27 00:29:00,
2013-11-26 19:34:00,34.2,32.5,30.16,ENE,67,0.0,0.0,94,0.26,,,0.13,meteobridge,2013-11-27 00:34:00,
2013-11-26 19:40:00,34.2,32.9,30.16,NE,55,0.0,0.0,95,0.27,,,0.17,meteobridge,2013-11-27 00:40:00,
2013-11-26 19:45:00,34.2,32.9,30.16,NE,55,0.0,0.0,95,0.28,,,0.20,meteobridge,2013-11-27 00:45:00,
2013-11-26 19:50:00,34.2,32.9,30.15,NE,55,0.0,0.0,95,0.29,,,0.24,meteobridge,2013-11-27 00:50:00,
2013-11-26 19:55:00,34.2,32.9,30.15,NE,55,0.0,0.0,95,0.29,,,0.27,meteobridge,2013-11-27 00:55:00,
2013-11-26 20:01:00,34.2,32.9,30.15,NE,55,0.0,0.9,95,0.29,,,0.29,meteobridge,2013-11-27 01:01:00,
2013-11-26 20:06:00,34.2,32.9,30.14,NE,55,2.0,2.0,95,0.30,,,0.32,meteobridge,2013-11-27 01:06:00,
2013-11-26 20:11:00,34.2,32.9,30.14,NE,55,0.9,0.9,95,0.31,,,0.35,meteobridge,2013-11-27 01:11:00,
2013-11-26 20:17:00,34.2,32.9,30.14,NE,55,0.0,0.0,95,0.33,,,0.39,meteobridge,2013-11-27 01:17:00,
2013-11-26 20:22:00,34.3,33.1,30.13,NE,55,0.9,2.0,95,0.36,,,0.44,meteobridge,2013-11-27 01:22:00,
2013-11-26 20:27:00,34.3,33.1,30.12,NE,44,0.0,2.0,95,0.38,,,0.48,meteobridge,2013-11-27 01:27:00,
2013-11-26 20:33:00,34.3,33.1,30.12,NE,44,0.0,0.9,95,0.40,,,0.52,meteobridge,2013-11-27 01:33:00,
2013-11-26 20:38:00,34.3,33.1,30.12,NE,44,0.0,0.0,95,0.41,,,0.57,meteobridge,2013-11-27 01:38:00,
2013-11-26 20:43:00,34.3,33.1,30.11,NE,44,0.9,0.9,95,0.41,,,0.61,meteobridge,2013-11-27 01:43:00,
2013-11-26 20:48:00,34.3,33.1,30.11,NE,44,0.0,0.9,95,0.42,,,0.65,meteobridge,2013-11-27 01:48:00,
2013-11-26 20:53:00,34.3,33.1,30.11,NE,44,0.9,0.9,95,0.43,,,0.69,meteobridge,2013-11-27 01:53:00,
2013-11-26 20:59:00,34.3,33.3,30.10,NE,44,0.0,0.0,96,0.43,,,0.72,meteobridge,2013-11-27 01:59:00,
2013-11-26 21:04:00,34.5,33.4,30.10,NE,44,0.0,0.9,96,0.43,,,0.74,meteobridge,2013-11-27 02:04:00,
2013-11-26 21:09:00,34.5,33.4,30.09,NE,44,0.0,0.0,96,0.43,,,0.77,meteobridge,2013-11-27 02:09:00,
2013-11-26 21:14:00,34.5,33.4,30.09,NE,44,0.0,0.0,96,0.42,,,0.79,meteobridge,2013-11-27 02:14:00,
2013-11-26 21:20:00,34.5,33.4,30.08,NE,44,0.0,0.0,96,0.40,,,0.82,meteobridge,2013-11-27 02:20:00,
2013-11-26 21:25:00,34.7,33.6,30.08,NE,44,0.0,0.9,96,0.37,,,0.84,meteobridge,2013-11-27 02:25:00,
2013-11-26 21:31:00,34.7,33.6,30.07,NE,44,0.0,0.9,96,0.36,,,0.87,meteobridge,2013-11-27 02:31:00,
2013-11-26 21:36:00,34.7,33.6,30.07,NE,44,0.0,0.0,96,0.35,,,0.90,meteobridge,2013-11-27 02:36:00,
2013-11-26 21:41:00,34.9,33.8,30.06,NE,44,0.0,0.0,96,0.33,,,0.93,meteobridge,2013-11-27 02:41:00,
2013-11-26 21:46:00,34.9,33.8,30.05,NE,44,0.9,2.0,96,0.32,,,0.96,meteobridge,2013-11-27 02:46:00,
2013-11-26 21:51:00,34.9,33.8,30.05,NE,49,0.9,2.0,96,0.30,,,0.98,meteobridge,2013-11-27 02:51:00,
2013-11-26 21:57:00,34.9,33.8,30.04,NE,46,0.0,0.9,96,0.29,,,1.00,meteobridge,2013-11-27 02:57:00,
2013-11-26 22:02:00,34.9,33.8,30.03,NE,46,0.0,0.0,96,0.28,,,1.02,meteobridge,2013-11-27 03:02:00,
2013-11-26 22:07:00,34.9,33.8,30.03,NE,39,2.0,2.9,96,0.27,,,1.03,meteobridge,2013-11-27 03:07:00,
2013-11-26 22:12:00,34.9,33.8,30.03,East,91,0.0,2.0,96,0.27,,,1.05,meteobridge,2013-11-27 03:12:00,
2013-11-26 22:17:00,35.1,34.0,30.02,NE,34,2.0,2.9,96,0.29,,,1.09,meteobridge,2013-11-27 03:17:00,
2013-11-26 22:23:00,35.1,34.0,30.02,East,80,0.0,2.0,96,0.31,,,1.14,meteobridge,2013-11-27 03:23:00,
2013-11-26 22:28:00,35.1,34.0,30.01,ENE,71,0.9,2.0,96,0.36,,,1.22,meteobridge,2013-11-27 03:28:00,
2013-11-26 22:33:00,35.1,34.0,30.01,ENE,71,0.0,2.0,96,0.46,,,1.34,meteobridge,2013-11-27 03:33:00,
2013-11-26 22:38:00,35.1,34.0,30.00,ENE,71,0.9,0.9,96,0.54,,,1.46,meteobridge,2013-11-27 03:38:00,
2013-11-26 22:44:00,35.2,34.2,30.00,ENE,71,0.0,0.9,96,0.61,,,1.56,meteobridge,2013-11-27 03:44:00,
2013-11-26 22:48:00,35.2,34.2,29.99,ENE,71,0.0,2.0,96,0.68,,,1.65,meteobridge,2013-11-27 03:48:00,
2013-11-26 22:54:00,35.2,34.5,29.98,ENE,71,0.0,2.0,97,0.75,,,1.74,meteobridge,2013-11-27 03:54:00,
2013-11-26 22:59:00,35.2,34.5,29.97,ENE,71,0.9,2.0,97,0.82,,,1.83,meteobridge,2013-11-27 03:59:00,
2013-11-26 23:04:00,35.4,34.7,29.96,ENE,71,0.9,2.0,97,0.88,,,1.91,meteobridge,2013-11-27 04:04:00,
2013-11-26 23:09:00,35.4,34.7,29.95,NNE,32,0.0,0.0,97,0.96,,,2.00,meteobridge,2013-11-27 04:09:00,
2013-11-26 23:15:00,35.6,34.9,29.95,NE,47,0.0,2.0,97,1.02,,,2.09,meteobridge,2013-11-27 04:15:00,
2013-11-26 23:20:00,35.8,35.1,29.95,NE,47,0.0,0.0,97,1.08,,,2.20,meteobridge,2013-11-27 04:20:00,
2013-11-26 23:25:00,35.8,35.1,29.93,NE,47,0.9,2.0,97,1.12,,,2.30,meteobridge,2013-11-27 04:25:00,
2013-11-26 23:31:00,36.0,35.2,29.93,NNE,19,0.0,0.9,97,1.13,,,2.42,meteobridge,2013-11-27 04:31:00,
2013-11-26 23:36:00,36.1,35.4,29.92,NNE,19,0.0,0.9,97,1.12,,,2.54,meteobridge,2013-11-27 04:36:00,
2013-11-26 23:42:00,36.3,35.6,29.91,NNE,19,0.9,2.0,97,1.13,,,2.66,meteobridge,2013-11-27 04:42:00,
2013-11-26 23:47:00,36.5,35.8,29.91,NNE,19,0.9,2.0,97,1.13,,,2.76,meteobridge,2013-11-27 04:47:00,
2013-11-26 23:52:00,36.9,36.1,29.91,NNE,19,0.0,0.9,97,1.12,,,2.84,meteobridge,2013-11-27 04:52:00,
2013-11-26 23:57:00,36.9,36.1,29.90,NNE,19,0.0,0.9,97,1.12,,,2.93,meteobridge,2013-11-27 04:57:00,